Temp
-3 -4 -4 -4 -5 -5 -5 -5 -5 -5 -5 -5 -5 -5 -6 -4 -3 -3 -3 -2 -1 -0
-3 -4 -4 -4 -5 -5 -5 -5 -5 -5 -5 -5 -5 -5 -6 -4 -3 -4 -3 -3 -2 -1
-3 -4 -4 -4 -5 -5 -5 -6 -5 -5 -5 -5 -5 -6 -6 -5 -4 -4 -4 -4 -3 -1
-4 -4 -4 -5 -5 -5 -6 -6 -5 -5 -5 -6 -6 -6 -6 -5 -5 -5 -4 -4 -3 -2
-4 -4 -4 -5 -5 -6 -6 -6 -6 -6 -5 -6 -6 -6 -6 -5 -5 -5 -4 -5 -4 -3
-4 -4 -4 -5 -6 -7 -6 -6 -6 -6 -6 -6 -6 -6 -6 -6 -6 -5 -5 -5 -4 -4
-4 -4 -4 -5 -7 -7 -7 -6 -6 -6 -6 -6 -6 -7 -6 -6 -6 -6 -5 -5 -5 -4
-4 -4 -4 -7 -8 -7 -7 -7 -7 -7 -7 -7 -7 -7 -7 -7 -7 -6 -5 -5 -5 -4
-4 -4 -5 -7 -8 -7 -7 -7 -7 -7 -7 -8 -7 -7 -7 -7 -8 -6 -6 -5 -5 -4
-4 -5 -5 -8 -7 -7 -7 -8 -8 -8 -8 -8 -8 -7 -7 -6 -6 -7 -6 -6 -6 -5
-5 -5 -6 -7 -8 -8 -8 -8 -8 -8 -8 -8 -8 -7 -7 -7 -6 -6 -6 -6 -6 -6
-5 -5 -6 -7 -8 -8 -8 -7 -8 -9 -8 -8 -8 -8 -7 -7 -7 -6 -7 -6 -6 -6
-5 -6 -6 -8 -8 -8 -8 -8 -7 -8 -8 -8 -8 -7 -7 -7 -7 -7 -7 -6 -6 -6
-6 -6 -7 -8 -8 -8 -8 -8 -7 -8 -8 -8 -8 -8 -8 -7 -8 -8 -7 -7 -7 -7
Height
1543 1538 1533 1529 1523 1517 1512 1506 1502 1498 1494 1489 1485 1480 1475 1470 1464 1460 1457 1456 1455 1452
1543 1538 1533 1528 1523 1517 1511 1505 1501 1497 1493 1488 1484 1479 1474 1468 1462 1458 1454 1451 1450 1450
1543 1538 1533 1527 1521 1515 1508 1504 1500 1496 1492 1487 1482 1478 1474 1467 1462 1457 1454 1451 1448 1445
1542 1537 1532 1526 1519 1513 1508 1503 1499 1495 1490 1486 1482 1478 1472 1467 1462 1457 1453 1450 1446 1442
1542 1537 1530 1523 1517 1512 1508 1504 1499 1494 1490 1486 1482 1477 1471 1465 1461 1456 1453 1449 1444 1440
1542 1535 1528 1521 1517 1512 1508 1503 1499 1494 1489 1485 1481 1476 1471 1465 1460 1456 1453 1448 1444 1439
1542 1535 1528 1521 1517 1513 1509 1503 1498 1494 1489 1485 1480 1475 1470 1464 1459 1455 1452 1447 1443 1439
1542 1536 1529 1522 1518 1515 1510 1504 1499 1494 1490 1486 1480 1475 1469 1463 1459 1456 1452 1447 1443 1440
1542 1536 1530 1523 1519 1515 1510 1505 1500 1495 1490 1485 1479 1474 1469 1465 1460 1456 1452 1448 1443 1438
1543 1537 1531 1525 1520 1515 1510 1505 1500 1495 1490 1486 1481 1475 1469 1464 1460 1456 1452 1448 1443 1437
1542 1537 1531 1526 1521 1516 1511 1506 1501 1496 1491 1487 1482 1477 1471 1466 1461 1456 1453 1448 1443 1438
1542 1537 1532 1527 1523 1518 1512 1507 1502 1497 1492 1487 1482 1477 1472 1467 1462 1458 1453 1448 1444 1441
1542 1537 1532 1528 1523 1519 1514 1509 1504 1499 1494 1488 1483 1478 1473 1468 1464 1459 1453 1448 1445 1441
1542 1537 1532 1528 1524 1520 1515 1510 1505 1500 1495 1490 1485 1480 1475 1470 1465 1460 1455 1451 1446 1442
Wind_Speed
32 27 26 26 25 28 34 29 25 24 23 23 23 25 26 29 24 20 15 13 12 15
27 26 25 26 23 29 35 25 22 23 23 25 25 24 29 31 23 21 17 15 14 15
25 26 29 28 29 34 28 21 21 22 23 25 26 23 32 30 24 21 18 18 16 15
26 29 32 31 33 28 22 21 21 23 24 25 25 24 34 29 25 21 20 20 19 16
29 31 35 33 29 21 23 21 22 23 24 26 25 25 36 31 26 22 22 21 22 20
33 34 36 28 23 24 23 23 23 23 24 25 23 30 35 31 26 22 20 21 20 21
32 35 36 26 25 24 24 23 24 23 24 24 21 30 33 30 24 21 21 19 21 20
30 34 36 26 24 23 22 23 23 22 23 25 21 29 31 29 22 21 21 20 21 20
29 33 34 25 24 24 23 24 23 23 22 26 26 27 28 26 22 22 21 22 22 22
27 32 32 25 24 25 25 24 25 24 23 23 25 26 28 25 24 22 21 22 24 24
25 32 29 24 24 25 27 25 25 23 24 22 23 25 26 27 25 24 23 21 23 25
25 31 27 22 23 25 26 26 25 24 25 25 25 26 26 27 27 26 25 25 23 23
25 29 26 21 19 22 23 25 27 26 26 26 26 26 27 27 28 27 26 25 25 25
25 27 23 16 19 21 22 25 28 30 27 28 28 29 27 26 27 27 26 26 26 24
Wind_Direction
2 6 4 358 351 354 353 353 351 348 353 351 351 350 348 351 352 354 346 331 306 289
359 2 354 355 354 348 347 351 349 349 352 353 354 352 353 352 355 357 353 341 326 306
359 355 355 354 351 347 354 0 355 354 355 355 359 354 352 354 358 358 1 350 331 311
353 354 353 348 347 357 4 4 0 359 360 359 2 352 354 359 359 1 360 354 343 331
355 354 351 349 356 12 9 4 2 2 360 359 358 349 355 358 360 4 2 351 351 344
1 357 355 357 6 17 8 5 6 7 1 357 1 351 355 357 360 5 360 358 354 352
358 359 360 4 13 11 7 6 7 9 6 359 0 347 354 357 4 4 360 3 5 0
355 358 0 7 13 10 6 10 9 8 8 2 356 351 356 358 7 6 4 8 7 7
352 356 1 11 13 8 11 11 9 8 10 0 3 360 4 5 7 11 10 7 7 9
352 356 1 12 14 10 10 8 9 10 12 11 8 5 8 11 14 14 11 11 6 7
352 355 359 9 14 9 8 9 8 11 14 15 18 12 13 15 17 16 19 14 14 9
349 353 358 11 13 8 10 15 17 19 18 22 24 22 18 16 19 18 18 21 16 15
347 353 357 8 10 9 14 17 23 24 24 25 26 26 22 20 18 19 21 22 17 16
346 350 354 5 12 15 16 18 21 23 24 28 28 28 25 22 20 20 24 21 18 18